Location: Kumla
(59.1265°N, 15.1401°E)
Time: 08:24:36
(UTC+01:00)

Transit 2A - Pass Details

Date: 09 December 2023
Orbit: 600 x 953 km, 66.7° (Epoch: 22 February)

Event Time Altitude Azimuth Distance (km) Brightness Sun altitude
Rises 20:34:51 0° 304° (NW) 2,918 9.9 -39.9°
Enters shadow 20:37:06 - 311° (NW) 2,039 8.9 -40.2°
Reaches altitude 10° 20:37:15 10° 311° (NW) 1,982 - -40.2°
Maximum altitude 20:41:29 45° 25° (NNE) 824 - -40.7°
Drops below altitude 10° 20:45:41 10° 100° (E) 1,953 - -41.2°
Sets 20:48:01 0° 106° (ESE) 2,870 - -41.5°
